Manistique, MI

6:58 AM EST on February 13, 2016 (GMT -0500)
Schoolcraft County

Weather History for KISQ - December, 2011

Change the Weather History Date:

Thursday, December 15, 2011

  Actual Average Record
Temperature  
Mean Temperature 32 °F -  
Max Temperature 39 °F 30 °F 46 °F (1998)
Min Temperature 26 °F 16 °F -6 °F (1989)
Degree Days  
Heating Degree Days 32    
Moisture  
Dew Point 32 °F    
Average Humidity 89    
Maximum Humidity 93    
Minimum Humidity 80    
Precipitation  
Precipitation 0.00 in - - ()
Sea Level Pressure  
Sea Level Pressure 29.59 in    
Wind  
Wind Speed 6 mph (West)    
Max Wind Speed 24 mph    
Max Gust Speed 33 mph    
Visibility 8 miles    
Events Fog , Rain , Snow    
Averages and records for this station are not official NWS values.
T = Trace of Precipitation, MM = Missing Value Source: NWS Daily Summary

Daily Weather History Graph

Daily Weather History Graph

Search for Another Location

Airport or City:

Trip Planner

Search our weather history database for the weather conditions in past years. The results will help you decide how hot, cold, wet, or windy it might be!

Date:

Astronomy

Dec. 15, 2011 Rise Set
Actual Time 8:19 AM EST 4:59 PM EST
Civil Twilight 7:44 AM EST 5:34 PM EST
Nautical Twilight 7:07 AM EST 6:12 PM EST
Astronomical Twilight 6:30 AM EST 6:48 PM EST
Moon 10:40 PM EST (12/15) 11:22 AM EST (12/15)
Length of Visible Light 9h 49m
Length of Day
8h 40m
Waning Gibbous, 75% of the Moon is Illuminated
Dec 15
Waning Gibbous
Dec 17
Last Quarter
Dec 24
New
Jan 1
First Quarter
Jan 9
Full

Hourly Weather History & Observations

Time (EST) Temp. Windchill Dew Point Humidity Pressure Visibility Wind Dir Wind Speed Gust Speed Precip Events Conditions
12:14 AM 39.2 °F - 37.4 °F 93% 29.55 in 1.0 mi Calm Calm - N/A   Overcast
12:35 AM 39.2 °F 37.0 °F 37.4 °F 93% 29.55 in 1.5 mi SW 3.5 mph - N/A Rain Rain
12:55 AM 39.2 °F - 37.4 °F 93% 29.54 in 1.8 mi Calm Calm - N/A Rain Rain
1:14 AM 39.2 °F - 37.4 °F 93% 29.52 in 4.0 mi Calm Calm - N/A Rain Rain
1:35 AM 39.2 °F - 37.4 °F 93% 29.48 in 2.0 mi Calm Calm - N/A Rain Light Rain
1:54 AM 39.2 °F - 37.4 °F 93% 29.48 in 0.8 mi Calm Calm - N/A Rain Light Rain
2:15 AM 39.2 °F - 37.4 °F 93% 29.49 in 1.2 mi Calm Calm - N/A   Overcast
2:35 AM 39.2 °F - 37.4 °F 93% 29.49 in 0.8 mi Calm Calm - N/A   Overcast
2:54 AM 39.2 °F - 37.4 °F 93% 29.49 in 0.5 mi Calm Calm - N/A   Overcast
3:15 AM 39.2 °F - 37.4 °F 93% 29.48 in 0.5 mi Calm Calm - N/A Fog Fog
3:54 AM 39.2 °F 37.0 °F 37.4 °F 93% 29.47 in 4.0 mi West 3.5 mph - N/A   Light Drizzle
4:15 AM 39.2 °F 35.9 °F 37.4 °F 93% 29.46 in 10.0 mi West 4.6 mph - N/A   Overcast
4:34 AM 39.2 °F 35.9 °F 37.4 °F 93% 29.46 in 10.0 mi West 4.6 mph - N/A   Overcast
4:54 AM 39.2 °F 34.2 °F 37.4 °F 93% 29.46 in 10.0 mi West 6.9 mph - N/A   Overcast
5:15 AM 39.2 °F 35.9 °F 37.4 °F 93% 29.45 in 10.0 mi West 4.6 mph - N/A   Overcast
5:34 AM 39.2 °F 35.0 °F 37.4 °F 93% 29.45 in 10.0 mi WNW 5.8 mph - N/A   Overcast
5:54 AM 39.2 °F 35.9 °F 35.6 °F 87% 29.45 in 10.0 mi WNW 4.6 mph - N/A   Overcast
6:14 AM 37.4 °F 34.9 °F 35.6 °F 93% 29.44 in 10.0 mi NNW 3.5 mph - N/A   Overcast
6:34 AM 37.4 °F - 35.6 °F 93% 29.44 in 10.0 mi Calm Calm - N/A   Overcast
7:14 AM 37.4 °F 32.8 °F 35.6 °F 93% 29.47 in 10.0 mi WNW 5.8 mph - N/A   Overcast
7:35 AM 37.4 °F 33.8 °F 35.6 °F 93% 29.47 in 10.0 mi West 4.6 mph - N/A   Overcast
7:54 AM 37.4 °F 32.8 °F 35.6 °F 93% 29.47 in 10.0 mi West 5.8 mph - N/A   Overcast
8:34 AM 37.4 °F 32.1 °F 35.6 °F 93% 29.48 in 10.0 mi West 6.9 mph - N/A   Light Drizzle
8:54 AM 37.4 °F 31.4 °F 35.6 °F 93% 29.50 in 10.0 mi West 8.1 mph - N/A   Overcast
9:14 AM 37.4 °F 32.1 °F 35.6 °F 93% 29.50 in 10.0 mi West 6.9 mph - N/A Rain Light Rain
9:34 AM 37.4 °F 33.8 °F 35.6 °F 93% 29.50 in 10.0 mi West 4.6 mph - N/A   Light Drizzle
10:14 AM 37.4 °F 32.1 °F 35.6 °F 93% 29.51 in 10.0 mi West 6.9 mph - N/A   Overcast
10:35 AM 37.4 °F 33.8 °F 35.6 °F 93% 29.52 in 10.0 mi WSW 4.6 mph - N/A   Drizzle
10:55 AM 37.4 °F 32.1 °F 33.8 °F 87% 29.52 in 10.0 mi West 6.9 mph - N/A Rain Light Rain
11:14 AM 37.4 °F 32.1 °F 33.8 °F 87% 29.52 in 10.0 mi West 6.9 mph - N/A   Light Drizzle
11:35 AM 37.4 °F 32.1 °F 33.8 °F 87% 29.52 in 10.0 mi West 6.9 mph - N/A Rain Light Rain
11:55 AM 37.4 °F 32.8 °F 33.8 °F 87% 29.52 in 10.0 mi WSW 5.8 mph - N/A   Overcast
12:14 PM 37.4 °F 31.4 °F 35.6 °F 93% 29.52 in 10.0 mi West 8.1 mph - N/A   Overcast
12:34 PM 37.4 °F 32.1 °F 35.6 °F 93% 29.52 in 10.0 mi West 6.9 mph - N/A   Overcast
12:54 PM 37.4 °F 31.4 °F 35.6 °F 93% 29.52 in 10.0 mi West 8.1 mph - N/A   Light Drizzle
1:34 PM 37.4 °F 32.1 °F 33.8 °F 87% 29.53 in 10.0 mi West 6.9 mph 10.4 mph N/A   Light Drizzle
2:14 PM 37.4 °F 32.1 °F 33.8 °F 87% 29.53 in 10.0 mi West 6.9 mph - N/A   Light Drizzle
2:34 PM 37.4 °F 30.8 °F 33.8 °F 87% 29.53 in 10.0 mi West 9.2 mph 16.1 mph N/A   Drizzle
2:55 PM 37.4 °F 33.8 °F 33.8 °F 87% 29.54 in 10.0 mi West 4.6 mph - N/A Rain Rain
3:14 PM 37.4 °F 29.3 °F 33.8 °F 87% 29.56 in 10.0 mi WNW 12.7 mph 18.4 mph N/A Rain Rain
3:34 PM 35.6 °F 27.5 °F 32.0 °F 87% 29.57 in 10.0 mi West 11.5 mph 20.7 mph N/A Rain Light Rain
3:55 PM 35.6 °F 28.0 °F 32.0 °F 87% 29.58 in 10.0 mi WNW 10.4 mph 17.3 mph N/A   Light Drizzle
4:14 PM 33.8 °F 23.2 °F 30.2 °F 87% 29.60 in 3.0 mi WNW 17.3 mph 20.7 mph N/A Snow Light Snow
4:35 PM 33.8 °F 22.8 °F 30.2 °F 87% 29.62 in 1.8 mi WNW 18.4 mph 26.5 mph N/A Snow Light Snow
4:55 PM 32.0 °F 20.8 °F 28.4 °F 87% 29.63 in 2.5 mi WNW 17.3 mph 31.1 mph N/A Snow Light Snow
5:14 PM 30.2 °F 17.8 °F 28.4 °F 93% 29.65 in 3.0 mi West 19.6 mph 25.3 mph N/A Snow Light Snow
5:35 PM 30.2 °F 19.3 °F 26.6 °F 86% 29.66 in 7.0 mi West 15.0 mph 25.3 mph N/A Snow Light Snow
5:55 PM 30.2 °F 20.8 °F 26.6 °F 86% 29.67 in 10.0 mi West 11.5 mph 20.7 mph N/A Snow Light Snow
6:14 PM 30.2 °F 21.3 °F 24.8 °F 80% 29.68 in 10.0 mi West 10.4 mph 19.6 mph N/A Snow Light Snow
6:35 PM 30.2 °F 19.8 °F 24.8 °F 80% 29.70 in 10.0 mi West 13.8 mph 18.4 mph N/A Snow Light Snow
6:54 PM 28.4 °F 17.0 °F 24.8 °F 86% 29.71 in 10.0 mi West 15.0 mph 20.7 mph N/A Snow Light Snow
7:14 PM 28.4 °F 19.1 °F 24.8 °F 86% 29.72 in 10.0 mi West 10.4 mph - N/A Snow Light Snow
7:34 PM 28.4 °F 18.0 °F 23.0 °F 80% 29.74 in 10.0 mi West 12.7 mph 18.4 mph N/A Snow Light Snow
7:55 PM 28.4 °F 18.0 °F 24.8 °F 86% 29.75 in 10.0 mi West 12.7 mph 18.4 mph N/A Snow Light Snow
8:14 PM 28.4 °F 17.0 °F 24.8 °F 86% 29.76 in 10.0 mi West 15.0 mph 24.2 mph N/A Snow Light Snow
8:34 PM 28.4 °F 16.2 °F 24.8 °F 86% 29.77 in 10.0 mi West 17.3 mph 21.9 mph N/A Snow Light Snow
8:55 PM 28.4 °F 17.5 °F 24.8 °F 86% 29.78 in 7.0 mi West 13.8 mph 21.9 mph N/A Snow Light Snow
9:14 PM 28.4 °F 18.0 °F 24.8 °F 86% 29.81 in 1.2 mi WNW 12.7 mph 21.9 mph N/A Snow Light Snow
9:34 PM 28.4 °F 15.4 °F 24.8 °F 86% 29.82 in 10.0 mi WNW 19.6 mph 29.9 mph N/A Snow Light Snow
9:55 PM 28.4 °F 15.1 °F 23.0 °F 80% 29.84 in 10.0 mi NW 20.7 mph 32.2 mph N/A   Overcast
10:34 PM 26.6 °F 13.4 °F 23.0 °F 86% 29.88 in 4.0 mi WNW 18.4 mph 27.6 mph N/A Snow Light Snow
10:55 PM 26.6 °F 12.7 °F 21.2 °F 80% 29.89 in 7.0 mi WNW 20.7 mph 32.2 mph N/A Snow Light Snow
11:14 PM 26.6 °F 13.1 °F 21.2 °F 80% 29.91 in 10.0 mi NW 19.6 mph 29.9 mph N/A Snow Light Snow
11:35 PM 26.6 °F 12.4 °F 21.2 °F 80% 29.91 in 10.0 mi NW 21.9 mph 32.2 mph N/A Snow Light Snow
11:55 PM 26.6 °F 11.7 °F 21.2 °F 80% 29.93 in 10.0 mi NW 24.2 mph 33.4 mph N/A Snow Light Snow